Location: Rounton
(54.4000°N, 1.3500°W)
Time: 04:40:37
(UTC+00:00)

S-56A Canister/Altair - Pass Details

Date: 07 December 2021
Orbit: 633 x 2499 km, 38.9° (Epoch: 17 January)

Event Time Altitude Azimuth Distance (km) Brightness Sun altitude
Rises 20:56:24 0° 193° (SSW) 5,804 11.9 -43.8°
Enters shadow 20:58:06 - 189° (S) 5,439 11.7 -44.0°
Reaches altitude 10° 21:03:26 10° 170° (S) 4,415 - -44.7°
Maximum altitude 21:07:48 13° 148° (SSE) 3,887 - -45.3°
Drops below altitude 10° 21:11:41 10° 125° (SE) 3,821 - -45.8°
Sets 21:16:42 0° 99° (E) 4,380 - -46.4°
